Weather History for K2W6 - September, 2013

Change the Weather History Date:

Thursday, September 19, 2013

  Actual Average (KNHK) Record (KNHK)
Temperature  
Mean Temperature 60 °F -  
Max Temperature 71 °F 78 °F 93 °F (1983)
Min Temperature 48 °F 61 °F 47 °F (1984)
Degree Days  
Heating Degree Days 6    
Growing Degree Days 10 (Base 50)    
Moisture  
Dew Point 51 °F    
Average Humidity 71    
Maximum Humidity 94    
Minimum Humidity 46    
Precipitation  
Precipitation 0.00 in - - ()
Sea Level Pressure  
Sea Level Pressure 30.18 in    
Wind  
Wind Speed 1 mph (SE)    
Max Wind Speed 8 mph    
Max Gust Speed -    
Visibility 10 miles    
Events      
Averages and records for this station are not official NWS values.
T = Trace of Precipitation, MM = Missing Value Source: NWS Daily Summary

Daily Weather History Graph

Daily Weather History Graph

Search for Another Location

Airport or City:

Trip Planner

Search our weather history database for the weather conditions in past years. The results will help you decide how hot, cold, wet, or windy it might be!

Date:

Astronomy

Sep. 19, 2013 Rise Set
Actual Time 6:51 AM EDT 7:07 PM EDT
Civil Twilight 6:25 AM EDT 7:33 PM EDT
Nautical Twilight 5:54 AM EDT 8:04 PM EDT
Astronomical Twilight 5:22 AM EDT 8:36 PM EDT
Moon 7:05 PM EDT (9/19) 6:57 AM EDT (9/19)
Length of Visible Light 13h 08m
Length of Day
12h 16m
Full, 100% of the Moon is Illuminated
Sep 19
Full
Sep 26
Last Quarter
Oct 4
New
Oct 11
First Quarter
Oct 18
Full

Hourly Weather History & Observations

Time (EDT) Temp. Dew Point Humidity Pressure Visibility Wind Dir Wind Speed Gust Speed Precip Events Conditions
12:03 AM 53.6 °F 50.0 °F 88% 30.22 in 10.0 mi Calm Calm - N/A   Clear
12:23 AM 53.6 °F 50.0 °F 88% 30.22 in 10.0 mi Calm Calm - N/A   Clear
12:43 AM 53.6 °F 50.0 °F 88% 30.22 in 10.0 mi Calm Calm - N/A   Clear
1:03 AM 53.6 °F 50.0 °F 88% 30.22 in 10.0 mi Calm Calm - N/A   Clear
1:23 AM 53.6 °F 50.0 °F 88% 30.22 in 10.0 mi Calm Calm - N/A   Clear
1:43 AM 53.6 °F 50.0 °F 88% 30.22 in 10.0 mi Calm Calm - N/A   Clear
2:03 AM 55.4 °F 50.0 °F 82% 30.22 in 10.0 mi Calm Calm - N/A   Clear
2:23 AM 53.6 °F 50.0 °F 88% 30.21 in 10.0 mi Calm Calm - N/A   Clear
2:43 AM 53.6 °F 50.0 °F 88% 30.21 in 10.0 mi Calm Calm - N/A   Clear
3:03 AM 53.6 °F 50.0 °F 88% 30.21 in 10.0 mi Calm Calm - N/A   Clear
3:23 AM 53.6 °F 50.0 °F 88% 30.20 in 10.0 mi Calm Calm - N/A   Clear
3:42 AM 51.8 °F 50.0 °F 94% 30.20 in 10.0 mi Calm Calm - N/A   Clear
4:03 AM 51.8 °F 48.2 °F 88% 30.19 in 10.0 mi Calm Calm - N/A   Clear
4:23 AM 51.8 °F 48.2 °F 88% 30.20 in 10.0 mi Calm Calm - N/A   Clear
4:43 AM 50.0 °F 46.4 °F 87% 30.20 in 10.0 mi Calm Calm - N/A   Clear
5:03 AM 50.0 °F 46.4 °F 87% 30.20 in 10.0 mi Calm Calm - N/A   Clear
5:23 AM 50.0 °F 48.2 °F 94% 30.19 in 4.0 mi Calm Calm - N/A   Clear
5:43 AM 50.0 °F 46.4 °F 87% 30.19 in 10.0 mi Calm Calm - N/A   Clear
6:04 AM 48.2 °F 46.4 °F 93% 30.20 in 10.0 mi Calm Calm - N/A   Clear
6:24 AM 48.2 °F 46.4 °F 93% 30.20 in 10.0 mi Calm Calm - N/A   Clear
6:44 AM 50.0 °F 46.4 °F 87% 30.21 in 10.0 mi Calm Calm - N/A   Clear
7:04 AM 48.2 °F 46.4 °F 93% 30.21 in 10.0 mi Calm Calm - N/A   Clear
7:24 AM 51.8 °F 50.0 °F 94% 30.21 in 10.0 mi Calm Calm - N/A   Clear
7:44 AM 51.8 °F 48.2 °F 88% 30.21 in 10.0 mi Calm Calm - N/A   Clear
8:04 AM 53.6 °F 50.0 °F 88% 30.21 in 10.0 mi Calm Calm - N/A   Clear
8:24 AM 59.0 °F 53.6 °F 82% 30.21 in 10.0 mi Calm Calm - N/A   Clear
8:44 AM 60.8 °F 53.6 °F 77% 30.20 in 10.0 mi Calm Calm - N/A   Clear
9:04 AM 62.6 °F 53.6 °F 72% 30.20 in 10.0 mi SSW 4.6 mph - N/A   Clear
9:24 AM 64.4 °F 53.6 °F 68% 30.21 in 10.0 mi SW 4.6 mph - N/A   Clear
9:44 AM 64.4 °F 51.8 °F 64% 30.21 in 10.0 mi South 5.8 mph - N/A   Clear
10:04 AM 66.2 °F 51.8 °F 60% 30.21 in 10.0 mi SW 6.9 mph - N/A   Clear
10:24 AM 68.0 °F 51.8 °F 56% 30.21 in 10.0 mi Calm Calm - N/A   Clear
10:44 AM 68.0 °F 51.8 °F 56% 30.22 in 10.0 mi Calm Calm - N/A   Clear
11:04 AM 68.0 °F 50.0 °F 52% 30.22 in 10.0 mi Calm Calm - N/A   Scattered Clouds
11:24 AM 68.0 °F 50.0 °F 52% 30.22 in 10.0 mi Calm Calm - N/A   Scattered Clouds
11:44 AM 69.8 °F 50.0 °F 49% 30.21 in 10.0 mi WSW 3.5 mph - N/A   Scattered Clouds
12:04 PM 71.6 °F 50.0 °F 46% 30.20 in 10.0 mi South 5.8 mph - N/A   Scattered Clouds
12:24 PM 71.6 °F 50.0 °F 46% 30.20 in 10.0 mi WSW 4.6 mph - N/A   Scattered Clouds
12:44 PM 69.8 °F 50.0 °F 49% 30.19 in 10.0 mi SSW 4.6 mph - N/A   Scattered Clouds
1:04 PM 69.8 °F 50.0 °F 49% 30.19 in 10.0 mi Calm Calm - N/A   Clear
1:24 PM 71.6 °F 50.0 °F 46% 30.18 in 10.0 mi SE 5.8 mph - N/A   Clear
1:44 PM 71.6 °F 50.0 °F 46% 30.17 in 10.0 mi Calm Calm - N/A   Clear
2:04 PM 71.6 °F 51.8 °F 50% 30.16 in 10.0 mi Calm Calm - N/A   Scattered Clouds
2:25 PM 71.6 °F 53.6 °F 53% 30.16 in 10.0 mi East 4.6 mph - N/A   Scattered Clouds
2:45 PM 71.6 °F 53.6 °F 53% 30.15 in 10.0 mi SE 4.6 mph - N/A   Scattered Clouds
3:05 PM 71.6 °F 53.6 °F 53% 30.14 in 10.0 mi East 4.6 mph - N/A   Scattered Clouds
3:25 PM 71.6 °F 53.6 °F 53% 30.14 in 10.0 mi East 8.1 mph - N/A   Scattered Clouds
3:45 PM 71.6 °F 53.6 °F 53% 30.13 in 10.0 mi ENE 5.8 mph - N/A   Clear
4:05 PM 71.6 °F 53.6 °F 53% 30.13 in 10.0 mi ENE 4.6 mph - N/A   Clear
4:25 PM 71.6 °F 53.6 °F 53% 30.13 in 10.0 mi East 4.6 mph - N/A   Clear
4:45 PM 71.6 °F 53.6 °F 53% 30.13 in 10.0 mi East 3.5 mph - N/A   Clear
5:05 PM 69.8 °F 53.6 °F 56% 30.13 in 10.0 mi ESE 3.5 mph - N/A   Clear
5:25 PM 69.8 °F 53.6 °F 56% 30.12 in 10.0 mi ESE 5.8 mph - N/A   Clear
5:45 PM 69.8 °F 53.6 °F 56% 30.13 in 10.0 mi SE 5.8 mph - N/A   Clear
6:05 PM 69.8 °F 53.6 °F 56% 30.13 in 10.0 mi SSE 3.5 mph - N/A   Clear
6:25 PM 68.0 °F 51.8 °F 56% 30.13 in 10.0 mi SSE 3.5 mph - N/A   Clear
6:45 PM 68.0 °F 51.8 °F 56% 30.13 in 10.0 mi SE 3.5 mph - N/A   Clear
7:05 PM 64.4 °F 51.8 °F 64% 30.13 in 10.0 mi Calm Calm - N/A   Clear
7:25 PM 64.4 °F 51.8 °F 64% 30.13 in 10.0 mi Calm Calm - N/A   Clear
7:45 PM 62.6 °F 51.8 °F 68% 30.14 in 10.0 mi Calm Calm - N/A   Clear
8:05 PM 62.6 °F 51.8 °F 68% 30.13 in 10.0 mi Calm Calm - N/A   Clear
8:25 PM 60.8 °F 51.8 °F 72% 30.14 in 10.0 mi Calm Calm - N/A   Clear
8:45 PM 60.8 °F 51.8 °F 72% 30.14 in 10.0 mi Calm Calm - N/A   Clear
9:05 PM 60.8 °F 51.8 °F 72% 30.14 in 10.0 mi Calm Calm - N/A   Clear
9:25 PM 60.8 °F 51.8 °F 72% 30.14 in 10.0 mi Calm Calm - N/A   Clear
9:45 PM 60.8 °F 51.8 °F 72% 30.13 in 10.0 mi Calm Calm - N/A   Clear
10:05 PM 59.0 °F 51.8 °F 77% 30.12 in 10.0 mi Calm Calm - N/A   Clear
10:25 PM 60.8 °F 51.8 °F 72% 30.12 in 10.0 mi Calm Calm - N/A   Clear
10:45 PM 59.0 °F 51.8 °F 77% 30.12 in 10.0 mi Calm Calm - N/A   Clear
11:06 PM 59.0 °F 51.8 °F 77% 30.12 in 10.0 mi Calm Calm - N/A   Clear
11:26 PM 59.0 °F 51.8 °F 77% 30.12 in 10.0 mi Calm Calm - N/A   Clear
11:46 PM 59.0 °F 51.8 °F 77% 30.12 in 10.0 mi Calm Calm - N/A   Clear